| time (UTC) | temp F | wind direction | speed MPH | gust MPH | rain 1hr in | rain 24hr in | rain mn in | humidity % | barometer mb |
| 20260906172903 | 54 | 102 | 0.0 | 0.0 | 0.00 | 0.00 | 0.00 | 64 | |
| 20260906171902 | 54 | 102 | 0.0 | 0.0 | 0.00 | 0.00 | 0.00 | 69 | |
| 20260906170901 | 54 | 102 | 0.0 | 0.0 | 0.00 | 0.00 | 0.00 | 69 | |
| 20260906165901 | 54 | 102 | 0.0 | 2.0 | 0.00 | 0.00 | 0.00 | 74 | |
| 20260906164900 | 55 | 115 | 0.0 | 0.0 | 0.00 | 0.00 | 0.00 | 79 | |
| 20260906163859 | 57 | 115 | 0.0 | 0.0 | 0.00 | 0.00 | 0.00 | 77 | |
| 20260906162900 | 59 | 115 | 0.0 | 0.0 | 0.00 | 0.00 | 0.00 | 70 | |
| 20260906161858 | 61 | 115 | 0.0 | 0.0 | 0.00 | 0.00 | 0.00 | 68 | |
| 20260906160858 | 64 | 115 | 0.0 | 0.0 | 0.00 | 0.00 | 0.00 | 62 | |
| 20260906155857 | 68 | 115 | 0.0 | 0.0 | 0.00 | 0.00 | 0.00 | 48 | |
| 20260906154857 | 72 | 115 | 0.0 | 0.0 | 0.00 | 0.00 | 0.00 | 49 | |
| 20260906153859 | 73 | 115 | 0.0 | 0.0 | 0.00 | 0.00 | 0.00 | 48 | |
| 20260906152856 | 73 | 115 | 0.0 | 0.0 | 0.00 | 0.00 | 0.00 | 48 | |
| 20260906151855 | 73 | 115 | 0.0 | 0.0 | 0.00 | 0.00 | 0.00 | 100 | |
| 20260906150855 | 74 | 115 | 0.0 | 0.0 | 0.00 | 0.00 | 0.00 | 45 | |
| 20260906145854 | 75 | 115 | 0.0 | 0.0 | 0.00 | 0.00 | 0.00 | 44 | |
| 20260906144853 | 76 | 115 | 0.0 | 0.0 | 0.00 | 0.00 | 0.00 | 43 | |
| 20260906142852 | 77 | 115 | 0.0 | 0.0 | 0.00 | 0.00 | 0.00 | 39 | |
| 20260906141851 | 77 | 115 | 0.0 | 0.0 | 0.00 | 0.00 | 0.00 | 43 | |
| 20260906140851 | 77 | 115 | 0.0 | 0.0 | 0.00 | 0.00 | 0.00 | 42 | |
| 20260906135850 | 77 | 115 | 0.0 | 0.0 | 0.00 | 0.00 | 0.00 | 42 | |
| 20260906134850 | 77 | 115 | 0.0 | 0.0 | 0.00 | 0.00 | 0.00 | 43 | |
| 20260906133849 | 77 | 115 | 0.0 | 0.0 | 0.00 | 0.00 | 0.00 | 42 | |
| 20260906132848 | 76 | 98 | 0.0 | 0.0 | 0.00 | 0.00 | 0.00 | 43 | |
| 20260906131848 | 75 | 98 | 0.0 | 1.0 | 0.00 | 0.00 | 0.00 | 44 | |
| 20260906130847 | 75 | 109 | 0.0 | 3.0 | 0.00 | 0.00 | 0.00 | 45 | |
| 20260906125847 | 74 | 106 | 0.0 | 3.0 | 0.00 | 0.00 | 0.00 | 46 | |
| 20260906124846 | 73 | 109 | 0.0 | 3.0 | 0.00 | 0.00 | 0.00 | 48 | |
| 20260906123846 | 72 | 92 | 0.0 | 0.0 | 0.00 | 0.00 | 0.00 | 48 | |
| 20260906122845 | 71 | 92 | 0.0 | 0.0 | 0.00 | 0.00 | 0.00 | 50 | |
| 20260906121845 | 72 | 92 | 0.0 | 0.0 | 0.00 | 0.00 | 0.00 | 50 | |
| 20260906120844 | 71 | 92 | 0.0 | 0.0 | 0.00 | 0.00 | 0.00 | 51 | |
| 20260906115845 | 70 | 97 | 0.0 | 0.0 | 0.00 | 0.00 | 0.00 | 52 | |
| 20260906114843 | 69 | 97 | 0.0 | 0.0 | 0.00 | 0.00 | 0.00 | 53 | |
| 20260906113842 | 69 | 97 | 0.0 | 3.0 | 0.00 | 0.00 | 0.00 | 100 | |
| 20260906112842 | 68 | 97 | 0.0 | 3.0 | 0.00 | 0.00 | 0.00 | 56 | |
| 20260906111841 | 66 | 101 | 1.0 | 2.0 | 0.00 | 0.00 | 0.00 | 60 | |
| 20260906110840 | 64 | 109 | 0.0 | 0.0 | 0.00 | 0.00 | 0.00 | 63 | |
| 20260906105841 | 62 | 95 | 0.0 | 1.0 | 0.00 | 0.00 | 0.00 | 66 | |
| 20260906104839 | 63 | 82 | 0.0 | 0.0 | 0.00 | 0.00 | 0.00 | 65 | |
| 20260906103840 | 62 | 94 | 0.0 | 2.0 | 0.00 | 0.00 | 0.00 | 68 | |
| 20260906102838 | 61 | 92 | 0.0 | 4.0 | 0.00 | 0.00 | 0.00 | 100 | |
| 20260906101837 | 61 | 109 | 1.0 | 2.0 | 0.00 | 0.00 | 0.00 | 69 | |
| 20260906100837 | 60 | 112 | 0.0 | 2.0 | 0.00 | 0.00 | 0.00 | 61 | |
| 20260906095836 | 62 | 102 | 2.0 | 7.0 | 0.00 | 0.00 | 0.00 | 59 | |
| 20260906094836 | 62 | 98 | 1.0 | 8.0 | 0.00 | 0.00 | 0.00 | 62 | |
| 20260906093835 | 61 | 80 | 0.0 | 0.0 | 0.00 | 0.00 | 0.00 | 63 | |
| 20260906092834 | 59 | 80 | 0.0 | 0.0 | 0.00 | 0.00 | 0.00 | 69 | |
| 20260906091834 | 58 | 80 | 0.0 | 5.0 | 0.00 | 0.00 | 0.00 | 71 | |
| 20260906090833 | 59 | 108 | 0.0 | 3.0 | 0.00 | 0.00 | 0.00 | 71 | |
| 20260906085833 | 59 | 122 | 2.0 | 2.0 | 0.00 | 0.00 | 0.00 | 64 | |
| 20260906084832 | 60 | 98 | 0.0 | 0.0 | 0.00 | 0.00 | 0.00 | 68 | |
| 20260906083831 | 61 | 90 | 0.0 | 4.0 | 0.00 | 0.00 | 0.00 | 59 | |
| 20260906082831 | 64 | 95 | 1.0 | 3.0 | 0.00 | 0.00 | 0.00 | 56 | |
| 20260906081831 | 66 | 90 | 0.0 | 1.0 | 0.00 | 0.00 | 0.00 | 51 | |
| 20260906080830 | 67 | 116 | 2.0 | 5.0 | 0.00 | 0.00 | 0.00 | 57 | |
| 20260906075829 | 66 | 97 | 0.0 | 5.0 | 0.00 | 0.00 | 0.00 | 50 | |
| 20260906074828 | 63 | 97 | 1.0 | 8.0 | 0.00 | 0.00 | 0.00 | 50 | |
| 20260906073828 | 61 | 106 | 1.0 | 5.0 | 0.00 | 0.00 | 0.00 | 54 | |
| 20260906072827 | 60 | 101 | 1.0 | 9.0 | 0.00 | 0.00 | 0.00 | 58 | |
| 20260906071827 | 58 | 116 | 4.0 | 12.0 | 0.00 | 0.00 | 0.00 | 62 | |
| 20260906070826 | 56 | 112 | 3.0 | 6.0 | 0.00 | 0.00 | 0.00 | 69 | |
| 20260906064825 | 53 | 142 | 3.0 | 8.0 | 0.00 | 0.00 | 0.00 | 72 | |
| 20260906063824 | 53 | 101 | 3.0 | 10.0 | 0.00 | 0.00 | 0.00 | 75 | |
| 20260906062824 | 53 | 111 | 1.0 | 10.0 | 0.00 | 0.00 | 0.00 | 76 | |
| 20260906060913 | 54 | 109 | 5.0 | 9.0 | 0.00 | 0.00 | 0.00 | 70 | |
| 20260906055916 | 54 | 119 | 4.0 | 13.0 | 0.00 | 0.00 | 0.00 | 68 | |
| 20260906054913 | 54 | 122 | 3.0 | 12.0 | 0.00 | 0.00 | 0.00 | 70 | |
| 20260906053915 | 53 | 113 | 1.0 | 10.0 | 0.00 | 0.00 | 0.00 | 72 | |
| 20260906052911 | 52 | 119 | 1.0 | 12.0 | 0.00 | 0.00 | 0.00 | 75 | |
| 20260906051910 | 51 | 102 | 1.0 | 14.0 | 0.00 | 0.00 | 0.00 | 78 | |
| 20260906050910 | 49 | 111 | 4.0 | 13.0 | 0.00 | 0.00 | 0.00 | 85 | |
| 20260906045910 | 48 | 113 | 3.0 | 11.0 | 0.00 | 0.00 | 0.00 | 85 |